DateTimeUTC,F1_A11,F1_S11,BsB_S11,BsG_S11,BsR_S11,BbsB_S11,BbsG_S11,BbsR_S11,BaB_A11,BaG_A11,BaR_A11,Tu_S11,T_S11,Uu_S11,U_S11,P_S11,T1_A11
2021-09-14T11:00:00Z,00000200,20000000,,,,,,,0000.02,0000.25,0000.26,18.7,25.6,03.2,02.1,0657.6,31.1
2021-09-14T11:01:00Z,00000200,20000000,,,,,,,-000.14,-000.57,-000.12,18.7,25.6,03.2,02.1,0657.6,31.1
2021-09-14T11:02:00Z,00000200,20000000,,,,,,,0000.05,0000.41,-000.11,18.7,25.6,03.2,02.1,0657.6,31.1
2021-09-14T11:03:00Z,00000200,60000000,,,,,,,-000.28,-000.52,-000.25,18.7,25.6,03.2,02.1,0657.6,31.0
2021-09-14T11:04:00Z,00000200,40000000,0002.83,0001.14,0000.69,0000.50,0000.00,0000.31,0000.46,0000.72,0000.53,18.8,25.4,03.1,02.1,0658.5,31.1
2021-09-14T11:05:00Z,00000200,00000000,0001.69,0001.32,0000.47,0000.71,0000.02,0000.27,0000.53,0000.29,0000.09,18.9,25.4,03.1,02.1,0658.5,31.0
2021-09-14T11:06:00Z,00000200,00000000,0002.46,0001.18,0000.70,0000.71,0000.09,0000.13,0000.13,0000.25,0000.17,18.9,25.4,03.1,02.1,0658.5,31.0
2021-09-14T11:07:00Z,00000200,00000000,0001.22,0000.86,0000.79,0000.61,0000.22,0000.12,0000.14,-000.01,0000.05,18.9,25.4,03.1,02.1,0658.4,31.1
2021-09-14T11:08:00Z,00000200,00000000,0001.63,0001.18,0001.35,0000.25,0000.16,0000.08,0000.35,0000.63,0000.47,18.9,25.4,03.1,02.1,0658.5,31.1
2021-09-14T11:09:00Z,00000200,00000000,0001.89,0001.23,0000.77,0000.58,0000.34,0000.12,0000.63,0000.59,0000.24,18.9,25.4,03.2,02.1,0658.5,31.1
2021-09-14T11:10:00Z,00000200,00000000,0001.67,0000.93,0000.73,0000.27,0000.36,0000.46,0000.31,0000.28,0000.67,18.9,25.3,03.2,02.1,0658.5,31.1
2021-09-14T11:11:00Z,00000200,00000000,0001.87,0001.11,0000.88,0000.90,0000.21,0000.07,0000.67,0000.81,0000.54,18.9,25.3,03.2,02.1,0658.4,31.1
2021-09-14T11:12:00Z,00000200,00000000,0001.08,0001.27,0001.23,-000.09,-000.16,0000.15,0000.38,0000.28,0000.43,19.0,25.4,03.2,02.2,0658.5,31.1
2021-09-14T11:13:00Z,00000200,00000000,0001.65,0001.02,0000.89,0000.28,-000.02,-000.08,0000.47,-000.05,0000.06,19.0,25.4,03.2,02.1,0658.5,31.1
2021-09-14T11:14:00Z,00000200,00000000,0002.20,0001.20,0001.06,0000.19,0000.18,0000.39,0000.40,0000.77,0000.56,19.1,25.4,03.2,02.2,0658.5,31.1
2021-09-14T11:15:00Z,00000200,00000000,0001.34,0000.89,0000.71,0000.23,0000.32,0000.58,0000.78,0000.45,0000.19,19.1,25.5,03.2,02.1,0658.5,31.1
2021-09-14T11:16:00Z,00000200,00000000,0002.08,0001.01,0000.66,-000.48,0000.02,0000.26,-000.29,0000.36,0000.12,19.1,25.5,03.2,02.2,0658.5,31.1
2021-09-14T11:17:00Z,00000200,00000000,0002.08,0001.10,0000.60,0000.38,-000.01,0000.03,0000.32,-000.02,0000.49,19.1,25.5,03.2,02.2,0658.5,31.1
2021-09-14T11:18:00Z,00000200,00000000,0001.96,0001.21,0000.69,0000.08,0000.09,0000.50,0000.66,0000.13,0000.08,19.1,25.5,03.2,02.2,0658.5,31.1
2021-09-14T11:19:00Z,00000200,00000000,0001.36,0001.33,0000.74,0000.36,0000.03,0000.36,0000.40,0000.79,0000.22,19.1,25.5,03.3,02.3,0658.4,31.1
2021-09-14T11:20:00Z,00000200,00000000,0002.28,0001.23,0000.76,-000.35,-000.06,0000.21,0000.28,0000.27,0000.43,19.0,25.4,03.2,02.2,0658.4,31.1
2021-09-14T11:21:00Z,00000200,00000000,0002.19,0001.25,0000.88,0000.49,0000.25,0000.19,0000.22,0000.39,0000.22,19.0,25.4,03.2,02.2,0658.4,31.1
2021-09-14T11:22:00Z,00000200,00000000,0002.26,0001.12,0000.79,0000.01,0000.13,0000.33,0000.45,0000.16,0000.35,19.0,25.4,03.3,02.2,0658.4,31.1
2021-09-14T11:23:00Z,00000200,00000000,0002.25,0001.38,0000.46,0000.20,0000.07,-000.19,0000.14,-000.04,0000.31,19.0,25.4,03.3,02.2,0658.4,31.1
2021-09-14T11:24:00Z,00000200,00000000,0002.20,0001.17,0000.65,0000.73,0000.03,0000.03,0000.40,0000.75,0000.01,19.0,25.4,03.3,02.2,0658.4,31.1
2021-09-14T11:25:00Z,00000200,00000000,0001.37,0001.20,0000.74,0000.36,0000.11,-000.15,0000.65,0000.65,0000.79,19.0,25.4,03.3,02.3,0658.4,31.1
2021-09-14T11:26:00Z,00000200,00000000,0001.04,0001.01,0000.78,0000.62,0000.38,0000.13,0000.57,0000.36,0000.46,19.0,25.4,03.3,02.3,0658.4,31.1
2021-09-14T11:27:00Z,00000200,00000000,0001.49,0000.90,0000.79,-000.42,-000.06,0000.12,0000.05,0000.08,-000.08,19.1,25.4,03.4,02.3,0658.4,31.1
2021-09-14T11:28:00Z,00000200,00000000,0002.43,0001.23,0000.90,0000.61,0000.20,0000.19,0001.15,0000.98,0000.37,19.2,25.5,03.3,02.2,0658.4,31.1
2021-09-14T11:29:00Z,00000200,00000000,0001.71,0001.63,0000.70,0000.33,-000.02,0000.29,0000.07,0000.13,0000.50,19.2,25.5,03.4,02.3,0658.3,31.1
2021-09-14T11:30:00Z,00000200,00000000,0002.76,0001.26,0000.48,0000.33,-000.01,-000.02,0000.12,0000.44,0000.16,19.3,25.5,03.4,02.3,0658.3,31.1
2021-09-14T11:31:00Z,00000200,00000000,0001.23,0001.00,0000.71,0000.56,0000.03,0000.01,0000.91,0000.34,0000.65,19.3,25.5,03.4,02.3,0658.3,31.1
2021-09-14T11:32:00Z,00000200,00000000,0001.72,0001.44,0000.75,0000.48,0000.07,0000.02,0000.17,0000.68,0000.30,19.3,25.5,03.4,02.3,0658.3,31.1
2021-09-14T11:33:00Z,00000200,00000000,0001.27,0001.27,0001.00,-000.24,0000.46,0000.45,0000.44,0000.19,0000.25,19.3,25.6,03.4,02.3,0658.4,31.1
2021-09-14T11:34:00Z,00000200,00000000,0001.93,0001.28,0000.65,-000.21,0000.28,0000.09,0000.57,0000.17,0000.09,19.3,25.6,03.4,02.3,0658.2,31.1
2021-09-14T11:35:00Z,00000200,00000000,0002.07,0001.17,0001.14,0000.04,-000.03,0000.06,0000.06,0000.31,0000.26,19.3,25.6,03.4,02.3,0658.2,31.1
2021-09-14T11:36:00Z,00000200,00000000,0001.44,0001.22,0000.83,0000.38,0000.08,0000.51,0000.11,0000.24,0000.18,19.2,25.5,03.5,02.4,0658.2,31.1
2021-09-14T11:37:00Z,00000200,00000000,0002.12,0001.33,0000.88,0000.38,0000.29,0000.04,0000.69,0000.77,0001.08,19.2,25.5,03.5,02.4,0658.2,31.1
2021-09-14T11:38:00Z,00000200,00000000,0002.14,0001.02,0000.57,0000.60,0000.31,0000.22,0000.35,0000.30,0000.06,19.2,25.6,03.6,02.4,0658.3,31.1
2021-09-14T11:39:00Z,00000200,00000000,0001.48,0001.04,0000.92,0000.71,0000.10,0000.07,-000.03,0000.30,0000.04,19.2,25.5,03.5,02.4,0658.3,31.1
2021-09-14T11:40:00Z,00000200,00000000,0001.35,0000.95,0000.59,0000.40,0000.09,0000.06,0000.97,0000.53,0000.42,19.2,25.5,03.6,02.4,0658.3,31.1
2021-09-14T11:41:00Z,00000200,00000000,0002.10,0001.32,0000.69,0000.19,-000.07,-000.12,0000.58,0000.68,0000.61,19.3,25.5,03.6,02.5,0658.2,31.1
2021-09-14T11:42:00Z,00000200,00000000,0002.86,0001.32,0001.09,0000.42,-000.18,0000.10,0000.09,-000.34,-000.06,19.3,25.6,03.6,02.5,0658.2,31.1
2021-09-14T11:43:00Z,00000200,00000000,0001.72,0001.26,0001.04,0000.53,-000.13,0000.29,0000.95,0001.04,0000.63,19.4,25.6,03.6,02.5,0658.2,31.1
2021-09-14T11:44:00Z,00000200,00000000,0001.50,0001.08,0000.93,-000.24,0000.17,0000.27,-000.21,0000.03,0000.16,19.4,25.6,03.6,02.5,0658.2,31.1
2021-09-14T11:45:00Z,00000200,00000000,0001.84,0001.18,0000.73,0000.86,-000.10,0000.51,0000.62,0000.14,0000.43,19.5,25.7,03.7,02.5,0658.2,31.1
2021-09-14T11:46:00Z,00000200,00000000,0001.60,0001.40,0000.98,0000.92,-000.06,0000.04,0000.26,0000.37,0000.37,19.5,25.7,03.6,02.5,0658.3,31.1
2021-09-14T11:47:00Z,00000200,00000000,0001.41,0001.39,0000.90,0000.32,0000.26,0000.24,0000.58,0000.66,0000.24,19.4,25.7,03.6,02.5,0658.3,31.1
2021-09-14T11:48:00Z,00000200,00000000,0001.67,0001.19,0000.89,0000.64,0000.10,0000.29,0000.50,0000.45,0000.25,19.4,25.6,03.7,02.5,0658.2,31.1
2021-09-14T11:49:00Z,00000200,00000000,0001.57,0001.04,0000.81,0000.09,0000.15,0000.23,-000.08,0000.45,0000.41,19.4,25.6,03.6,02.5,0658.3,31.1
2021-09-14T11:50:00Z,00000200,00000000,0002.08,0001.44,0000.48,0000.53,-000.04,0000.24,0000.72,0000.22,0000.18,19.4,25.6,03.8,02.6,0658.3,31.1
2021-09-14T11:51:00Z,00000200,00000000,0002.38,0001.23,0000.65,0000.02,0000.02,0000.08,0000.52,0000.46,0000.31,19.4,25.6,03.7,02.6,0658.3,31.1
2021-09-14T11:52:00Z,00000200,00000000,0002.40,0001.34,0001.00,0000.64,0000.10,0000.28,0000.07,0000.36,0000.53,19.4,25.6,03.7,02.5,0658.3,31.1
2021-09-14T11:53:00Z,00000200,00000000,0002.11,0001.26,0000.65,0000.54,0000.28,0000.06,0000.55,0000.33,0000.37,19.4,25.6,03.8,02.6,0658.3,31.1
2021-09-14T11:54:00Z,00000200,00000000,0002.17,0001.02,0000.57,0000.48,0000.03,0000.17,0000.44,0000.29,0000.08,19.4,25.6,03.8,02.6,0658.2,31.1
2021-09-14T11:55:00Z,00000200,00000000,0001.60,0001.09,0000.98,0000.29,-000.10,0000.33,0000.59,0000.22,0000.61,19.4,25.6,03.8,02.6,0658.3,31.1
2021-09-14T11:56:00Z,00000200,00000000,0001.22,0000.93,0000.23,0000.27,-000.05,-000.26,0000.23,0000.72,0000.08,19.4,25.6,03.8,02.6,0658.3,31.1
2021-09-14T11:57:00Z,00000200,40000000,,,,,,,-000.06,-000.17,0000.36,19.5,25.7,04.1,02.8,0658.3,31.1
2021-09-14T11:58:00Z,00000200,60000000,,,,,,,0000.09,0000.33,-000.43,19.4,25.8,03.6,02.4,0657.4,31.2
2021-09-14T11:59:00Z,00000200,20000000,,,,,,,0000.16,0000.18,0000.35,19.4,25.9,03.6,02.4,0657.3,31.2
